Lid_Strength_Index
-1 -0 0 3 10 10 12 10 7 8 8 6 5 6 7 7 9 12 2 1 0 0 -1 -1 -2 -2 -1 -1 -1 -2 -2 -2 -2 -2 -2 -2 -2 -2 -2 -2 -2 -2 -2 -2 -2 -2 -2 -2 -2
2 0 2 5 11 13 12 8 9 8 6 5 5 6 6 8 5 4 3 0 -0 -0 -1 -1 -1 -2 -1 -1 -1 -2 -1 -1 -2 -2 -2 -2 -2 -2 -2 -2 -2 -2 -2 -2 -2 -2 -2 -2 -2
1 1 6 8 11 13 12 8 8 6 5 6 7 5 6 7 4 3 1 0 0 -0 -1 -1 -1 -2 -1 -1 -1 -1 -1 -1 -1 -2 -2 -2 -2 -2 -2 -2 -2 -2 -2 -1 -1 -2 -1 -1 -1
4 3 5 10 11 9 9 7 7 7 6 5 5 8 5 3 3 2 0 0 1 -0 -1 -1 -2 -2 -1 -1 -1 -1 -1 -1 -1 -1 -1 -1 -1 -2 -2 -2 -2 -2 -2 -1 -2 -1 -1 -1 -1
5 5 10 11 10 8 7 6 6 7 7 6 6 8 7 3 1 1 1 0 1 0 -0 -1 -1 -2 -2 -1 -1 -1 -1 -1 -1 -1 -1 -1 -1 -2 -2 -2 -1 -1 -2 -2 -2 -2 -2 -2 -1
8 6 11 13 10 8 7 6 6 6 6 6 6 7 7 2 2 1 1 1 0 0 -0 -1 0 -1 -1 -1 -2 -2 -1 -1 -1 -1 -1 -1 -2 -2 -1 -1 -1 -1 -1 -1 -1 -1 -1 -1 -1
8 9 11 10 10 10 7 5 7 7 6 7 5 8 6 4 2 1 1 1 1 -0 -0 -0 -0 -0 -0 -1 -1 -1 -1 -2 -2 -2 -1 -2 -2 -2 -1 -2 -1 -1 -1 -1 -1 -1 -1 -1 -1
8 8 10 10 11 10 7 6 5 6 7 4 5 8 8 4 1 1 1 1 1 0 0 0 -0 -0 -0 -0 0 -0 -1 -1 -2 -1 -1 -0 -1 -1 -1 -1 -2 -1 -1 -1 -1 -2 -2 -1 -2
7 11 12 10 10 9 6 7 5 5 6 5 5 5 3 2 2 2 2 2 2 1 1 0 0 0 -0 -1 0 1 0 -0 -1 -1 -0 0 -0 -1 -0 -0 -1 -2 -2 -1 -2 -2 -2 -1 -1
10 12 10 7 7 8 7 6 6 7 6 7 6 4 3 2 3 3 3 3 3 2 1 1 1 1 0 -0 0 -1 -1 -1 -1 -1 -0 0 -1 -0 0 1 1 -0 -1 -2 -2 -2 -2 -1 -0
9 12 10 7 6 6 7 7 6 8 8 6 6 5 4 3 3 3 3 3 3 2 1 1 1 0 1 1 0 0 -0 -0 -0 -0 -0 -0 -0 -0 -0 -0 1 0 1 0 -1 -1 -0 0 0
12 11 9 7 7 7 7 6 8 7 7 5 4 4 4 4 4 4 3 3 3 2 2 1 1 1 1 1 1 0 0 -0 0 0 0 0 0 -0 0 1 1 1 0 1 1 1 0 0 0
10 10 8 8 7 8 7 8 8 7 6 5 4 4 4 4 4 3 3 3 2 2 2 1 1 1 1 1 1 1 0 0 0 -0 -0 0 0 1 1 0 1 1 0 1 1 1 1 1 0
8 8 8 8 8 7 8 8 8 6 5 5 5 5 4 4 3 3 3 3 2 2 2 2 1 1 1 1 1 1 1 1 0 -0 0 0 0 1 1 1 1 1 1 1 1 1 1 1 1
6 8 8 8 7 8 8 10 9 6 5 6 6 5 5 4 3 3 3 3 2 2 3 3 3 3 3 2 1 1 1 0 1 -0 2 2 2 1 0 -0 0 0 0 0 0 0 0 1 0
9 9 11 8 7 7 8 13 8 6 6 7 6 5 5 4 4 3 3 3 2 4 4 4 3 2 2 2 2 1 1 1 2 2 3 3 2 2 1 0 0 0 0 0 1 1 1 1 1
11 14 13 11 8 8 10 12 9 8 8 8 7 7 5 5 4 3 5 5 5 4 5 4 4 4 3 2 1 1 1 1 1 1 2 2 2 2 1 1 1 -0 -0 0 1 1 1 2 2
14 14 13 13 11 10 11 12 11 10 9 9 8 8 7 5 5 6 6 6 6 6 5 5 5 5 4 2 2 1 2 3 3 4 5 4 4 2 1 -0 0 1 1 2 3 3 2 2 2
14 14 13 12 12 13 12 12 11 10 11 10 10 9 8 6 4 6 8 8 7 7 7 6 6 6 5 3 3 3 3 4 5 6 6 5 4 4 4 3 4 4 3 3 3 3 3 2 2
13 14 14 13 11 13 14 14 12 11 11 11 10 10 9 8 8 7 8 8 8 8 8 8 7 6 6 4 3 3 5 6 6 7 7 7 6 6 5 6 5 5 5 5 6 6 5 3 3
13 15 15 15 13 13 15 16 14 12 11 11 11 10 10 9 8 9 8 8 8 8 8 8 8 7 6 4 3 4 5 6 7 7 8 8 7 7 7 7 7 7 7 7 8 7 7 6 4
15 13 14 14 17 20 15 21 16 14 13 12 11 11 11 11 10 8 8 9 9 9 9 9 9 8 7 5 4 4 4 6 7 8 8 8 8 8 8 8 8 8 8 8 8 7 8 7 8
14 12 14 14 16 17 17 20 18 14 15 14 13 12 12 10 10 9 8 9 10 10 10 10 9 9 7 6 4 5 7 7 8 8 9 9 9 9 9 8 9 9 9 9 9 9 9 9 9
11 13 13 14 16 22 18 19 19 17 16 14 12 11 10 10 10 9 9 10 11 11 10 10 10 10 9 7 6 6 7 8 8 9 9 10 10 10 10 9 9 9 9 9 9 9 10 10 10
13 15 21 23 24 23 17 19 18 16 15 13 12 12 11 11 10 10 11 11 11 11 11 11 11 11 9 9 9 9 9 9 10 10 11 11 11 12 11 11 11 10 10 10 10 10 11 11 12
14 15 18 23 22 21 18 22 18 13 13 12 11 11 10 10 9 10 10 11 11 11 11 11 12 12 11 11 11 11 11 12 12 12 12 12 12 12 11 11 11 10 10 10 11 11 12 13 13
14 17 14 19 22 22 19 17 15 14 13 13 12 12 12 11 10 10 10 10 11 11 11 12 12 12 12 12 13 13 13 13 13 13 12 12 12 11 12 11 11 11 11 12 12 13 13 13 13
13 12 19 19 25 25 22 20 19 15 14 13 12 12 11 10 10 11 11 11 11 11 11 12 12 13 13 13 13 13 13 13 12 12 12 12 12 12 12 12 12 13 12 12 12 13 12 13 13
13 15 14 15 18 21 22 21 16 14 13 12 11 10 10 11 11 11 11 11 11 11 12 12 13 13 13 13 13 13 13 13 12 12 12 13 13 13 13 13 13 12 12 12 12 11 11 12 12
11 13 13 18 19 19 19 20 14 13 13 12 10 10 11 11 11 11 11 11 12 11 12 12 12 12 12 13 13 13 13 13 13 13 13 13 13 13 13 12 12 12 12 12 13 13 12 13 13